| time (UTC) | temp F | wind direction | speed MPH | gust MPH | rain 1hr in | rain 24hr in | rain mn in | humidity % | barometer mb |
| 20260508080411 | 53 | 148 | 2.0 | 5.0 | 0.00 | 0.01 | 0.00 | 77 | 1014.8 |
| 20260508075600 | 53 | 77 | 2.0 | 5.0 | 0.00 | 0.01 | 0.00 | 78 | 1014.7 |
| 20260508073409 | 52 | 112 | 2.0 | 5.0 | 0.00 | 0.01 | 0.00 | 78 | 1014.7 |
| 20260508071912 | 52 | 112 | 1.0 | 5.0 | 0.00 | 0.01 | 0.00 | 79 | 1014.7 |
| 20260508070410 | 51 | 102 | 2.0 | 4.0 | 0.00 | 0.01 | 0.00 | 80 | 1014.6 |
| 20260508064908 | 50 | 86 | 0.0 | 3.0 | 0.00 | 0.01 | 0.00 | 80 | 1014.6 |
| 20260508063407 | 50 | 136 | 1.0 | 4.0 | 0.00 | 0.01 | 0.00 | 80 | 1014.4 |
| 20260508061906 | 50 | 120 | 0.0 | 4.0 | 0.00 | 0.01 | 0.00 | 79 | 1014.2 |
| 20260508060407 | 50 | 131 | 2.0 | 5.0 | 0.00 | 0.01 | 0.00 | 79 | 1014.1 |
| 20260508054905 | 50 | 121 | 2.0 | 5.0 | 0.00 | 0.01 | 0.00 | 79 | 1014.0 |
| 20260508053403 | 49 | 134 | 2.0 | 6.0 | 0.00 | 0.01 | 0.00 | 79 | 1013.8 |
| 20260508051907 | 50 | 119 | 2.0 | 5.0 | 0.00 | 0.01 | 0.00 | 78 | 1013.8 |
| 20260508050402 | 50 | 118 | 1.0 | 5.0 | 0.00 | 0.01 | 0.00 | 78 | 1013.6 |
| 20260508044902 | 50 | 131 | 2.0 | 5.0 | 0.00 | 0.01 | 0.00 | 78 | 1013.5 |
| 20260508044055 | 49 | 145 | 1.0 | 4.0 | 0.00 | 0.01 | 0.00 | 79 | 1013.5 |
| 20260508041900 | 49 | 134 | 2.0 | 5.0 | 0.00 | 0.01 | 0.00 | 80 | 1013.5 |
| 20260508040353 | 49 | 115 | 2.0 | 5.0 | 0.00 | 0.01 | 0.00 | 80 | 1013.5 |
| 20260508034854 | 49 | 106 | 2.0 | 4.0 | 0.00 | 0.01 | 0.00 | 80 | 1013.5 |
| 20260508033353 | 49 | 141 | 2.0 | 5.0 | 0.00 | 0.01 | 0.00 | 79 | 1013.5 |
| 20260508031853 | 50 | 121 | 1.0 | 3.0 | 0.00 | 0.01 | 0.00 | 79 | 1013.6 |
| 20260508030353 | 50 | 160 | 1.0 | 4.0 | 0.00 | 0.01 | 0.00 | 78 | 1013.6 |
| 20260508025549 | 50 | 123 | 3.0 | 6.0 | 0.00 | 0.01 | 0.00 | 79 | 1013.4 |
| 20260508023352 | 50 | 129 | 3.0 | 5.0 | 0.00 | 0.01 | 0.00 | 79 | 1013.4 |
| 20260508021853 | 50 | 115 | 2.0 | 6.0 | 0.00 | 0.01 | 0.00 | 79 | 1013.4 |
| 20260508021058 | 50 | 139 | 3.0 | 5.0 | 0.00 | 0.01 | 0.00 | 79 | 1013.5 |
| 20260508015556 | 50 | 124 | 1.0 | 5.0 | 0.00 | 0.01 | 0.00 | 77 | 1013.5 |
| 20260508013353 | 51 | 135 | 3.0 | 7.0 | 0.00 | 0.01 | 0.00 | 76 | 1013.5 |
| 20260508011851 | 51 | 124 | 2.0 | 4.0 | 0.00 | 0.01 | 0.00 | 75 | 1013.4 |
| 20260508010353 | 51 | 175 | 2.0 | 6.0 | 0.00 | 0.01 | 0.00 | 74 | 1013.3 |
| 20260508004853 | 51 | 115 | 1.0 | 2.0 | 0.00 | 0.01 | 0.00 | 76 | 1013.3 |
| 20260508003943 | 51 | 105 | 1.0 | 2.0 | 0.00 | 0.01 | 0.00 | 77 | 1013.5 |
| 20260508003349 | 51 | 105 | 0.0 | 2.0 | 0.00 | 0.01 | 0.00 | 76 | 1013.4 |
| 20260508000350 | 51 | 158 | 0.0 | 3.0 | 0.00 | 0.01 | 0.00 | 77 | 1013.5 |
| 20260507234851 | 51 | 114 | 1.0 | 3.0 | 0.00 | 0.01 | 0.00 | 77 | 1013.5 |
| 20260507233351 | 51 | 148 | 1.0 | 4.0 | 0.00 | 0.01 | 0.00 | 77 | 1013.6 |
| 20260507232557 | 51 | 110 | 1.0 | 4.0 | 0.00 | 0.01 | 0.00 | 76 | 1013.5 |
| 20260507230348 | 51 | 207 | 2.0 | 4.0 | 0.00 | 0.01 | 0.00 | 75 | 1013.5 |
| 20260507224851 | 52 | 124 | 2.0 | 4.0 | 0.00 | 0.01 | 0.01 | 75 | 1013.4 |
| 20260507224058 | 52 | 127 | 2.0 | 4.0 | 0.00 | 0.01 | 0.01 | 75 | 1013.4 |
| 20260507221849 | 51 | 186 | 1.0 | 5.0 | 0.00 | 0.01 | 0.01 | 75 | 1013.4 |
| 20260507220349 | 51 | 120 | 2.0 | 4.0 | 0.00 | 0.01 | 0.01 | 76 | 1013.4 |
| 20260507214851 | 52 | 122 | 1.0 | 3.0 | 0.00 | 0.01 | 0.01 | 76 | 1013.3 |
| 20260507213351 | 52 | 127 | 1.0 | 3.0 | 0.00 | 0.01 | 0.01 | 77 | 1013.3 |
| 20260507211851 | 52 | 129 | 2.0 | 6.0 | 0.00 | 0.01 | 0.01 | 77 | 1013.2 |
| 20260507210349 | 52 | 130 | 2.0 | 5.0 | 0.00 | 0.01 | 0.01 | 79 | 1013.2 |
| 20260507204849 | 52 | 134 | 1.0 | 3.0 | 0.00 | 0.01 | 0.01 | 79 | 1013.1 |
| 20260507203350 | 52 | 114 | 2.0 | 6.0 | 0.00 | 0.01 | 0.01 | 81 | 1012.9 |
| 20260507201850 | 51 | 122 | 2.0 | 4.0 | 0.00 | 0.01 | 0.01 | 84 | 1012.8 |
| 20260507200350 | 51 | 122 | 1.0 | 3.0 | 0.00 | 0.01 | 0.01 | 86 | 1012.7 |
| 20260507194849 | 52 | 112 | 1.0 | 3.0 | 0.00 | 0.01 | 0.01 | 86 | 1012.6 |
| 20260507193349 | 53 | 115 | 0.0 | 2.0 | 0.00 | 0.01 | 0.01 | 85 | 1012.5 |
| 20260507191847 | 53 | 127 | 0.0 | 2.0 | 0.01 | 0.01 | 0.01 | 85 | 1012.4 |
| 20260507190341 | 53 | 131 | 0.0 | 2.0 | 0.01 | 0.01 | 0.01 | 84 | 1012.4 |
| 20260507184842 | 53 | 222 | 0.0 | 3.0 | 0.01 | 0.01 | 0.01 | 83 | 1012.3 |
| 20260507183340 | 53 | 115 | 1.0 | 4.0 | 0.01 | 0.01 | 0.01 | 82 | 1012.2 |
| 20260507181838 | 53 | 117 | 2.0 | 3.0 | 0.00 | 0.00 | 0.00 | 83 | 1012.2 |
| 20260507180339 | 53 | 117 | 1.0 | 3.0 | 0.00 | 0.00 | 0.00 | 83 | 1012.2 |
| 20260507174836 | 53 | 127 | 1.0 | 4.0 | 0.00 | 0.00 | 0.00 | 84 | 1012.2 |
| 20260507173335 | 53 | 101 | 2.0 | 4.0 | 0.00 | 0.00 | 0.00 | 85 | 1012.3 |
| 20260507171835 | 53 | 139 | 1.0 | 2.0 | 0.00 | 0.00 | 0.00 | 84 | 1012.3 |
| 20260507170334 | 53 | 112 | 2.0 | 4.0 | 0.00 | 0.00 | 0.00 | 81 | 1012.3 |
| 20260507164830 | 54 | 101 | 2.0 | 6.0 | 0.00 | 0.00 | 0.00 | 79 | 1012.4 |
| 20260507164035 | 55 | 271 | 4.0 | 8.0 | 0.00 | 0.00 | 0.00 | 76 | 1012.2 |
| 20260507161833 | 55 | 282 | 3.0 | 12.0 | 0.00 | 0.00 | 0.00 | 72 | 1012.1 |
| 20260507160326 | 57 | 166 | 3.0 | 8.0 | 0.00 | 0.00 | 0.00 | 64 | 1011.9 |
| 20260507154826 | 58 | 205 | 3.0 | 10.0 | 0.00 | 0.00 | 0.00 | 63 | 1011.9 |
| 20260507153324 | 57 | 155 | 3.0 | 10.0 | 0.00 | 0.00 | 0.00 | 63 | 1012.0 |
| 20260507151826 | 57 | 122 | 3.0 | 6.0 | 0.00 | 0.00 | 0.00 | 63 | 1012.0 |
| 20260507151018 | 57 | 179 | 3.0 | 10.0 | 0.00 | 0.00 | 0.00 | 64 | 1012.0 |
| 20260507144824 | 58 | 140 | 4.0 | 12.0 | 0.00 | 0.00 | 0.00 | 62 | 1012.1 |
| 20260507143320 | 57 | 131 | 4.0 | 11.0 | 0.00 | 0.00 | 0.00 | 62 | 1012.2 |
| 20260507142524 | 57 | 198 | 4.0 | 9.0 | 0.00 | 0.00 | 0.00 | 63 | 1012.4 |
| 20260507141010 | 57 | 116 | 4.0 | 11.0 | 0.00 | 0.00 | 0.00 | 63 | 1012.5 |
| 20260507134820 | 58 | 124 | 5.0 | 12.0 | 0.00 | 0.00 | 0.00 | 63 | 1012.5 |
| 20260507133321 | 58 | 168 | 4.0 | 10.0 | 0.00 | 0.00 | 0.00 | 62 | 1012.6 |
| 20260507131820 | 58 | 135 | 2.0 | 7.0 | 0.00 | 0.00 | 0.00 | 64 | 1012.7 |
| 20260507131017 | 57 | 161 | 4.0 | 9.0 | 0.00 | 0.00 | 0.00 | 65 | 1012.9 |
| 20260507125513 | 56 | 144 | 4.0 | 12.0 | 0.00 | 0.00 | 0.00 | 67 | 1012.9 |
| 20260507123316 | 56 | 222 | 5.0 | 12.0 | 0.00 | 0.00 | 0.00 | 70 | 1013.0 |
| 20260507121816 | 55 | 160 | 5.0 | 11.0 | 0.00 | 0.00 | 0.00 | 72 | 1013.0 |
| 20260507121021 | 54 | 149 | 4.0 | 12.0 | 0.00 | 0.00 | 0.00 | 73 | 1013.1 |
| 20260507114815 | 53 | 130 | 4.0 | 12.0 | 0.00 | 0.00 | 0.00 | 74 | 1013.1 |
| 20260507113316 | 53 | 129 | 4.0 | 11.0 | 0.00 | 0.00 | 0.00 | 77 | 1013.1 |
| 20260507111816 | 52 | 129 | 4.0 | 10.0 | 0.00 | 0.00 | 0.00 | 79 | 1013.2 |
| 20260507110316 | 50 | 145 | 4.0 | 11.0 | 0.00 | 0.00 | 0.00 | 81 | 1013.3 |
| 20260507104816 | 49 | 118 | 4.0 | 11.0 | 0.00 | 0.00 | 0.00 | 82 | 1013.4 |
| 20260507103316 | 49 | 111 | 5.0 | 13.0 | 0.00 | 0.00 | 0.00 | 83 | 1013.5 |
| 20260507101817 | 48 | 119 | 4.0 | 10.0 | 0.00 | 0.00 | 0.00 | 84 | 1013.6 |
| 20260507100316 | 47 | 131 | 4.0 | 12.0 | 0.00 | 0.00 | 0.00 | 85 | 1013.6 |
| 20260507094818 | 47 | 115 | 4.0 | 11.0 | 0.00 | 0.00 | 0.00 | 85 | 1013.5 |
| 20260507094701 | 47 | 120 | 6.0 | 13.0 | 0.00 | 0.00 | 0.00 | 84 | 1013.5 |
| 20260507092515 | 47 | 131 | 5.0 | 12.0 | 0.00 | 0.00 | 0.00 | 85 | 1013.5 |
| 20260507090317 | 47 | 123 | 4.0 | 12.0 | 0.00 | 0.00 | 0.00 | 85 | 1013.6 |
| 20260507084817 | 46 | 120 | 5.0 | 12.0 | 0.00 | 0.00 | 0.00 | 86 | 1013.5 |
| 20260507083316 | 46 | 139 | 6.0 | 13.0 | 0.00 | 0.00 | 0.00 | 87 | 1013.5 |
| 20260507081818 | 46 | 108 | 5.0 | 12.0 | 0.00 | 0.00 | 0.00 | 87 | 1013.4 |